Tracking 20083 objects as of 12-Dec-2019
HD Live streaming from Space Station
objects crossing your sky now

CZ-2C DEB


CZ-2C DEB is no longer on orbit


NORAD ID: 28225
Int'l Code: 2004-012F
Perigee: N/A
Apogee: N/A
Inclination: N/A
Period: N/A
Semi major axis: N/A
RCS: N/A
Launch date: April 18, 2004
Source: People's Republic of China (PRC)
Launch site: Xichang Space Center, China (XSC)
Decay date: 2018-10-10

Note: This is SATELLITE DEBRIS
aabbcc
Your satellite tracking list
Your tracking list is empty




NASA's NSSDC Master Catalog

Two Line Element Set (TLE):
1 28225U 04012F   18283.08770676  .19542866  24509-5  16970-2 0  9990
2 28225  97.4189 122.0955 0008716 300.7373  59.3067 16.39321935784931
Source of the keplerian elements: AFSPC